DMSP 5D-2 F14 DEB

Satellite information

Favourite Embed

Satellite Type and Status

DEBRISIN ORBIT

Key statistics

Satellite DMSP 5D-2 F14 DEB at a glance.

Uptime

10434

Days in orbit

Revolutions

≈ 14.7

Per day

Orbit

SSO

Sun Synchronous Orbit

Inclination

98.6

Latest

Satellite identification and parameters

Extended collection of information and parameters for DMSP 5D-2 F14 DEB.

Object identification

Identified? True

Debris? True

Object name: DMSP 5D-2 F14 DEB

International designator: 1997-012S

Object number (NORAD): 62946

Object ID (CCSDS): 62946

Country: UNITED STATES OF AMERICA (US)

Current information (Y/N): Y

RCS size: SMALL

Orbital parameters

Period: 98.143 minutes

Inclination: 98.5745 deg

SMA: 7048.021 km

Apoapsis: 681.643 km

Periapsis: 658.128 km

RAAN: 347.3566 deg

Eccentricy: 0.00166819

Argument of periapsis: 198.9353 deg

Mean anomaly: 161.1232 deg

Mean motion: 14.67242924 rev/day

Mean motion (dot): 0.00185057 rev/day2

B* drag term: 0.031902024 1/REarth

Two-line elements (TLE)

Creation date: Oct. 28, 2025, 2:18 a.m.

Reference frame: TEME

Reference center: EARTH

Epoch: Oct. 27, 2025, 2:05 p.m. UTC

TLE line 0: 0 DMSP 5D-2 F14 DEB

TLE line 1: 1 62946U 97012S 25300.58713195 .00185057 00000-0 31902-1 0 9997

TLE line 2: 2 62946 98.5745 347.3566 0016682 198.9353 161.1232 14.67242924475948

Live tracking on map

Real-time ground track for satellite DMSP 5D-2 F14 DEB.

In-orbit conjunctions

A list of the most updated potential collisions computed for object DMSP 5D-2 F14 DEB.

Target Orbit TCA Probability of collision Miss distance Type
CZ-6A DEB LEO 2025-02-16 02:49:45 0.0003502358 176.0 (m) DEBRIS

Associated space launch

Military meteorological satellite

DMSP 5D-2 F14 DEB was lifted into orbit during the mission ‘Titan II SLV | DMSP-5D2 F14’, on board a Titan II SLV space rocket.

The launch took place on April 4, 1997, 4:47 p.m. from Space Launch Complex 4W.

For more information about the launch, click the button.

Launch to space Titan II SLV | DMSP-5D2 F14
Titan II SLV | DMSP-5D2 F14

Agency: N/A

Status: Launch Successful

Launch date: April 4, 1997, 4:47 p.m. UTC

Rocket: Titan II SLV

Launch pad: Space Launch Complex 4W

Location: Vandenberg SFB, CA, USA

...

Latest news about this satellite

News about space launch
Retired military weather satellite breaks up

A defunct military weather satellite has broken up in orbit and created more than 50 pieces of debris, the latest in a series of similar incidents. The post Retired military weather satellite breaks up appeared first on SpaceNews.


Newsletter sign-up

Weekly statistics, charts and insights to help you stay on top of the space industry.